GFSGBSN_con_lsi_132.txt.gz
Lid_Strength_Index
-1 -1 -1 -1 -1 -2 -1 -1 -1 -1 -1 -1 -1 -1 -1 -1 -1 -1 -1 -1 -1 -1 -1 -1 -1 -1 1 5 5 -0 -1 -1 -0 1 3 6 8 8 9 9 8 10 9 8 7 8 8
-0 -1 -1 -1 -1 -1 -1 -1 -1 -1 -1 -1 -1 -1 -1 -1 -1 -1 -1 -2 -1 -1 -1 -1 -1 -1 3 9 0 -0 -0 0 1 2 3 5 7 6 8 8 9 8 8 9 8 8 8
-0 -0 -0 -1 -1 -1 -1 -1 -1 -1 -1 -1 -1 -1 -1 -1 -1 -1 -1 -2 -1 -1 -1 -1 -1 1 5 6 0 1 -0 1 0 2 4 3 4 6 7 9 7 8 11 10 9 9 9
-1 -1 -1 -1 -1 -1 -1 -1 -1 -1 -1 -1 -1 -1 -1 -1 -1 -1 -1 -1 -1 -2 -2 -1 -1 1 7 2 3 3 0 1 0 1 3 2 2 5 7 6 8 11 12 15 11 9 8
-1 -1 -1 -1 -1 -1 -1 -1 -1 -1 -1 -1 -0 -1 -1 -1 -1 -1 -1 -1 -1 -1 -2 -1 2 3 7 1 3 3 1 3 2 2 3 2 3 7 8 10 13 12 16 15 12 9 10
-1 -1 -1 -1 -1 -1 -1 -1 -1 -1 -1 -1 -1 -0 -1 -1 -1 -1 -1 -1 -1 -1 -0 0 1 6 5 6 3 2 1 2 4 4 5 6 7 10 10 12 17 16 16 14 14 11 11
-1 -1 -1 -1 -1 -1 -1 -0 -1 -1 -1 -0 -0 -0 -1 -1 -1 -1 -0 1 4 6 4 6 6 7 6 3 1 3 2 3 4 6 10 8 12 14 12 11 12 12 13 14 12 9 11
-1 -1 -1 -1 -1 -1 -1 -1 -1 -0 -0 -0 -0 -0 -1 -1 -1 -1 0 5 5 5 8 4 4 5 4 3 7 5 2 7 8 11 9 11 13 10 9 10 11 13 15 15 12 10 11
-1 -1 -1 -1 -0 -0 -0 -0 -1 -1 -0 -0 0 -0 -0 -1 -1 0 2 4 1 3 8 7 5 5 5 4 7 7 4 6 9 11 11 13 11 8 10 11 12 12 13 14 14 11 11
-0 -0 -0 -0 -0 -0 -0 -0 -0 -0 -0 -0 0 -0 -0 -1 2 2 4 2 1 3 12 11 8 6 5 5 8 4 4 6 9 11 10 11 8 10 11 12 11 14 10 11 12 14 18
-0 -0 0 0 0 -0 -0 -0 -0 -0 -0 -0 2 -0 -0 -1 3 4 3 1 2 4 22 11 8 3 5 7 7 7 3 6 10 10 11 13 11 11 12 12 10 13 10 11 12 14 14
-0 -0 -0 -0 0 -0 -0 -0 -0 -0 -0 -0 2 -0 -0 1 2 2 1 1 3 13 20 13 8 9 9 8 8 7 8 5 7 10 9 10 8 9 10 9 9 9 11 12 13 14 19
-0 -0 -0 0 0 0 -0 -0 -0 -0 -0 -0 1 -0 0 1 5 1 1 4 14 18 14 13 12 9 10 11 10 10 10 11 12 15 15 12 12 9 8 12 10 10 13 19 20 20 20
0 0 0 0 0 0 0 -0 -0 -0 -0 1 0 0 1 2 1 1 3 11 23 18 17 9 10 10 12 10 10 11 12 13 10 11 14 16 17 12 9 11 13 12 13 18 22 21 18
0 0 0 0 0 0 0 -0 -0 -0 0 1 -0 2 3 2 1 1 8 15 19 18 12 11 11 13 13 11 11 11 12 12 10 10 15 16 15 10 9 10 10 13 15 11 16 24 21
0 0 0 0 0 0 0 0 0 0 1 0 3 5 4 1 1 4 11 16 16 11 9 10 15 12 16 13 13 12 12 10 11 8 8 12 17 11 10 9 9 11 10 16 15 22 23
0 0 0 0 0 0 0 0 0 0 0 0 4 8 4 1 2 8 15 16 14 9 9 11 13 13 13 14 12 13 13 10 9 9 9 11 13 14 11 13 14 13 14 13 13 16 20
0 0 0 0 0 0 0 0 0 -0 0 3 7 11 3 2 9 11 14 13 9 9 9 9 10 11 12 12 13 13 14 11 8 8 11 10 13 16 15 11 9 10 13 12 16 18 17
0 0 0 0 0 0 0 0 0 1 1 6 10 10 5 3 14 12 14 12 10 10 10 10 11 10 11 11 14 12 12 9 8 9 10 10 14 18 17 13 11 13 12 11 12 14 16
0 0 0 0 0 0 0 0 0 1 2 6 9 12 11 10 16 12 16 15 14 9 9 9 10 9 11 12 11 13 12 9 7 8 7 8 12 15 18 15 13 15 13 12 13 16 15
1 0 0 0 0 0 0 0 1 1 2 7 11 12 11 13 17 14 15 14 14 13 10 9 11 11 11 15 13 13 12 11 9 8 8 9 15 13 12 12 12 13 13 12 14 13 15
1 1 0 0 0 0 0 1 1 2 3 9 12 12 13 12 14 13 16 18 14 15 11 11 12 10 10 13 13 15 12 11 11 9 10 9 15 13 15 12 12 14 12 12 12 12 12
0 0 0 1 1 1 1 1 2 2 4 10 10 10 11 11 17 16 16 16 13 11 10 9 9 10 11 10 9 9 9 10 10 11 11 11 13 15 17 13 13 17 14 13 12 11 12
1 0 0 0 0 1 1 1 2 2 4 8 10 10 13 14 15 16 12 11 12 11 12 10 9 9 8 6 6 7 7 9 9 10 9 12 13 14 17 15 21 13 9 10 11 11 9
0 0 -0 0 0 0 1 1 1 2 3 7 8 9 13 14 14 14 12 12 12 12 12 10 9 7 6 7 13 16 13 12 12 10 10 10 13 15 18 18 16 14 14 12 12 13 9
-0 -0 -0 -0 -0 -0 0 1 1 2 3 7 8 9 10 12 15 11 14 12 13 12 12 12 8 7 7 10 15 16 17 17 18 13 11 10 11 14 16 19 20 12 12 9 9 15 9
-0 -0 -0 -0 -0 -0 -0 0 1 1 1 6 8 8 9 11 9 10 10 10 9 11 13 13 11 8 8 11 13 15 15 12 16 16 15 14 14 16 16 18 16 13 11 8 16 14 8
-0 -0 -0 -0 -0 -0 -0 -0 0 1 1 5 7 7 8 13 9 7 7 9 9 8 11 11 12 9 10 13 13 13 14 13 14 14 14 15 16 16 16 18 19 13 9 12 9 11 12
-0 -0 -0 -0 -0 -0 -0 0 0 1 1 4 8 7 7 10 11 7 7 7 7 7 9 10 12 9 8 11 11 11 14 13 16 16 12 15 12 14 14 14 14 9 11 12 12 11 13

GFSGBSN_con_lsi_135.txt.gz
Lid_Strength_Index
-1 -1 -1 -1 -2 -2 -1 -1 -1 -1 -1 -1 -1 -1 -1 -1 -1 -1 -2 -1 -1 -1 -1 -2 -2 -1 1 5 5 -0 -1 -1 -1 1 3 5 7 7 9 8 8 10 8 7 6 8 8
-1 -1 -1 -1 -1 -1 -2 -2 -1 -1 -1 -1 -1 -1 -1 -1 -1 -1 -1 -1 -1 -1 -1 -2 -2 -1 3 8 0 -1 -0 -0 1 2 3 4 6 6 7 8 9 8 8 8 7 7 7
-0 -0 -0 -0 -1 -1 -1 -2 -1 -1 -1 -1 -1 -1 -1 -1 -1 -1 -1 -1 -1 -1 -2 -1 -2 1 4 6 1 0 -0 1 0 1 4 3 4 6 7 8 7 8 10 9 8 8 8
-0 -0 -0 -0 -0 -1 -1 -1 -1 -1 -1 -1 -1 -1 -1 -1 -1 -1 -1 -1 -1 -2 -2 -1 -1 2 7 2 2 3 0 2 1 1 2 2 3 5 7 7 8 10 11 14 9 9 8
-1 -1 -1 -1 -1 -1 -1 -1 -1 -1 -1 -1 -1 -1 -1 -1 -1 -1 -1 -1 -1 -2 -2 -2 2 3 7 1 4 4 1 3 2 2 2 1 3 7 7 10 13 12 15 14 12 8 9
-1 -1 -1 -1 -1 -1 -1 -1 -1 -1 -1 -1 -1 -1 -1 -1 -1 -1 -1 -1 -2 -1 -0 0 1 6 6 7 4 3 1 2 4 4 5 6 7 10 10 12 17 15 15 14 14 10 10
-1 -1 -1 -1 -1 -1 -1 -1 -1 -1 -1 -1 -1 -1 -1 -1 -1 -1 -0 1 4 6 4 7 6 7 6 4 2 3 2 3 4 6 10 8 11 14 12 10 11 12 13 14 12 9 11
-1 -1 -1 -1 -1 -1 -1 -1 -1 -1 -1 -1 -1 -1 -1 -0 -1 -1 0 5 5 5 8 5 5 5 4 3 7 5 2 7 8 11 9 11 13 10 9 10 11 12 13 14 11 10 11
-1 -1 -1 -1 -1 -1 -1 -1 -1 -1 -1 -1 -1 -1 -1 -1 -1 0 2 5 3 3 8 7 5 5 6 4 7 7 4 6 9 11 11 13 11 8 10 11 13 12 13 14 14 12 11
-1 -1 -1 -1 -1 -1 -0 -1 -0 -0 -0 -1 -1 -1 -1 -1 2 2 4 3 3 3 12 11 8 6 5 5 8 4 3 6 9 11 11 11 8 10 11 12 11 15 10 11 12 13 17
-1 -1 -1 -1 -1 -0 -0 -0 -0 -0 -0 -0 -0 -0 -1 -0 2 4 3 3 3 4 20 10 8 3 4 7 7 7 3 6 10 11 10 12 11 12 12 12 10 13 10 11 12 13 14
-1 -1 -1 -0 -0 -0 -0 -0 -0 -0 -0 -0 -0 -0 1 1 1 2 2 2 4 13 19 12 8 9 9 8 9 7 8 5 7 10 9 10 8 9 10 9 9 9 11 12 12 14 19
-1 -0 -0 -0 -0 -0 -0 -0 -0 -0 -0 -0 -0 0 4 0 4 2 2 5 14 18 15 13 12 10 10 11 10 10 10 11 12 15 15 11 11 9 8 11 10 10 13 19 20 20 20
-0 -0 0 -0 -0 -0 0 0 -0 -0 -0 -0 -0 1 2 1 2 2 4 10 19 21 18 11 10 10 12 11 11 11 11 12 10 11 13 15 17 12 9 11 13 13 13 18 22 22 19
0 0 0 0 0 0 0 0 0 -0 -0 -0 0 3 2 3 1 2 8 15 18 18 14 11 11 13 13 11 11 12 12 12 10 10 14 15 14 10 9 9 10 13 16 12 16 23 19
0 0 0 0 0 0 0 0 0 0 -0 -0 3 5 4 2 2 4 11 16 18 12 10 10 14 12 15 13 13 12 13 10 11 9 9 12 16 11 10 9 9 11 10 16 16 21 22
0 0 0 0 0 0 0 0 0 -0 -0 -0 6 8 4 1 3 8 13 19 14 10 9 11 13 13 13 13 12 13 13 11 9 10 8 10 13 14 11 13 13 13 14 14 14 16 20
1 0 0 1 0 0 0 0 0 -0 -0 3 9 11 3 3 10 10 15 14 10 11 10 10 10 11 12 12 13 12 13 11 9 8 12 10 13 16 15 11 9 11 12 13 17 18 17
0 0 0 0 0 0 0 0 -0 -0 -0 5 9 9 4 5 13 15 14 13 11 11 11 11 11 11 10 11 14 12 11 8 8 9 11 10 14 17 16 13 11 13 12 12 13 15 17
0 0 0 0 0 0 0 0 0 -0 1 5 8 12 10 10 14 13 15 15 12 10 10 10 10 9 11 12 11 13 12 9 8 8 7 8 13 14 18 16 13 15 13 12 13 16 16
0 0 0 0 0 0 0 0 0 1 1 4 9 12 12 14 14 15 15 15 13 14 11 10 11 11 11 13 13 13 11 10 9 8 8 10 15 14 13 12 12 13 14 13 14 13 15
0 0 0 0 0 0 0 0 0 1 2 9 11 11 12 16 11 13 14 18 16 14 12 12 12 11 11 13 12 13 11 11 12 9 10 9 15 13 14 12 12 14 12 13 13 13 12
0 0 0 0 0 0 1 2 2 2 4 10 10 10 11 12 12 14 17 17 13 11 11 10 10 10 11 11 10 10 10 10 11 12 11 11 14 15 17 13 14 17 13 12 12 11 12
0 0 0 0 0 1 2 2 2 2 4 8 10 10 11 15 13 15 13 12 12 12 12 10 9 10 9 7 7 8 9 10 10 10 10 14 14 13 16 15 21 12 9 10 11 10 10
0 0 0 1 1 2 2 2 2 3 3 8 9 10 11 16 14 13 13 12 12 12 12 10 10 8 7 8 14 19 20 17 15 11 11 10 13 15 17 17 14 14 12 12 12 12 9
1 1 1 1 1 1 1 2 2 3 3 7 9 9 9 12 15 11 13 12 16 18 17 13 9 8 8 11 17 23 23 22 20 15 10 10 10 13 15 20 20 14 11 9 8 16 8
-0 0 1 1 1 1 1 1 1 2 3 6 9 9 9 11 11 12 15 15 13 15 16 14 12 9 9 13 19 22 21 15 20 21 19 14 14 15 15 17 15 12 11 8 16 14 8
-0 0 0 0 0 1 1 1 1 2 2 6 9 8 10 11 11 10 10 10 11 13 16 13 11 11 10 15 18 18 20 16 15 13 13 14 15 16 15 17 18 11 11 12 9 7 10
-0 -0 -0 -0 0 1 1 1 1 2 2 5 9 8 7 11 11 7 8 9 10 10 11 10 13 9 9 11 11 12 13 13 13 16 11 14 11 13 14 14 11 11 10 14 14 13 12

GFSGBSN_con_lsi_138.txt.gz
Lid_Strength_Index
-1 -1 -1 -2 -2 -2 -2 -2 -2 -1 -2 -1 -1 -1 -1 -1 -1 -2 -2 -2 -1 -1 -1 -2 -1 -1 0 5 5 -1 -1 -1 -0 0 3 5 5 6 8 7 7 8 7 6 6 6 8
-1 -1 -1 -1 -2 -2 -2 -2 -2 -2 -1 -1 -1 -1 -1 -1 -1 -1 -1 -2 -2 -1 -1 -2 -2 -1 2 8 -0 -1 -1 -0 1 1 3 3 5 5 7 7 8 6 6 6 6 6 6
-1 -1 -1 -1 -1 -2 -2 -2 -2 -2 -2 -1 -1 -1 -1 -1 -1 -1 -1 -1 -2 -1 -1 -2 -2 -0 4 5 -1 -1 -1 0 0 1 4 2 3 5 6 8 6 6 9 7 7 7 8
-1 -1 -1 -1 -1 -1 -2 -2 -1 -2 -2 -1 -1 -1 -1 -1 -1 -1 -1 -1 -1 -1 -2 -2 -2 1 6 0 -1 0 -0 1 -0 0 1 2 2 5 6 6 8 10 9 11 7 7 7
-1 -1 -1 -1 -1 -1 -1 -2 -1 -2 -2 -1 -1 -1 -1 -1 -1 -1 -1 -1 -1 -1 -2 -2 1 2 6 0 2 0 0 3 2 1 1 1 3 6 7 10 12 11 15 12 10 7 8
-1 -1 -1 -1 -1 -1 -1 -1 -1 -1 -1 -1 -1 -1 -1 -1 -1 -1 -1 -1 -1 -1 -0 -0 1 5 4 5 2 2 0 1 3 4 5 6 7 10 10 12 17 14 14 12 12 9 9
-1 -1 -1 -1 -1 -1 -1 -1 -1 -1 -1 -1 -1 -1 -1 -1 -1 -1 -0 1 4 5 3 6 6 5 5 2 1 2 1 3 3 6 10 8 11 13 11 10 10 11 12 12 10 8 10
-1 -1 -1 -1 -1 -1 -1 -1 -1 -1 -1 -1 -1 -1 -1 -1 -1 -1 0 4 4 3 8 4 4 4 3 2 6 4 1 6 7 10 8 10 13 9 8 9 11 11 13 13 10 8 9
-1 -1 -1 -1 -1 -1 -1 -1 -1 -1 -1 -1 -1 -1 -1 -1 -1 0 2 3 0 0 8 7 4 5 4 3 6 6 4 5 8 9 10 12 9 7 9 10 13 12 13 13 12 10 9
-1 -1 -1 -1 -1 -1 -1 -1 -1 -1 -1 -1 -1 -1 -1 -1 2 2 3 1 0 0 11 11 8 6 4 4 7 3 3 5 7 10 9 10 7 9 11 12 11 15 10 11 12 13 17
-1 -1 -1 -1 -1 -1 -1 -1 -1 -1 -1 -1 -1 -1 -1 -1 2 4 3 2 2 2 19 9 8 2 4 6 6 6 2 5 9 9 9 11 10 11 12 11 10 13 9 11 11 13 14
-1 -1 -1 -1 -1 -1 -1 -1 -1 -0 -0 -1 -1 -1 -1 1 2 2 2 2 4 13 19 12 8 9 9 7 7 6 6 4 5 8 8 9 6 8 9 9 9 9 11 12 12 14 19
-1 -1 -1 -1 -1 -1 -1 -1 -1 -1 -0 -0 -1 -1 0 0 5 1 2 5 14 17 11 13 12 9 9 10 9 9 10 10 11 14 13 10 10 7 8 10 9 10 13 19 20 20 20
-0 -0 -0 -0 -0 -0 -0 -0 -0 -1 -0 -0 -1 -1 0 1 0 1 4 10 17 14 13 9 10 10 12 10 10 10 11 12 9 9 11 14 15 10 8 9 11 12 12 16 21 20 17
-0 -0 -0 -0 -0 -0 -0 -0 -0 -0 -0 -0 -0 1 2 2 1 2 8 15 14 13 11 11 10 13 12 10 10 10 11 11 9 9 12 13 13 8 8 7 8 11 15 10 14 17 17
-0 -0 0 -0 -0 -0 -0 -0 -0 -0 -0 -0 2 3 4 2 2 4 11 13 14 10 8 9 13 11 14 13 12 11 12 9 9 8 7 9 14 9 9 8 9 11 9 16 16 21 21
0 0 0 0 0 0 0 -0 -0 -0 -0 -0 3 7 3 3 3 8 13 14 12 8 7 9 11 12 11 12 11 12 11 9 8 8 7 9 11 13 9 11 12 13 14 14 14 16 19
0 0 0 0 0 0 0 0 -0 0 -0 1 6 10 3 3 10 11 12 11 9 9 8 9 9 10 11 11 12 11 12 9 6 7 10 9 12 15 13 10 8 9 12 13 17 18 16
1 0 0 0 0 0 0 0 0 -0 -0 4 7 7 2 3 13 12 11 10 9 10 9 9 10 9 8 10 13 11 10 7 7 8 9 9 13 16 15 13 11 12 11 11 13 14 16
0 1 0 0 0 0 0 0 0 -0 -0 3 8 11 9 8 9 11 12 12 12 9 10 10 10 8 10 11 9 12 11 8 7 7 7 7 11 13 16 14 13 15 13 11 13 17 16
0 0 0 0 0 0 0 0 0 -0 -0 2 7 10 10 12 12 11 11 11 12 12 10 9 10 9 10 13 12 12 10 9 8 7 8 9 15 12 11 11 11 12 12 13 14 13 16
0 0 0 0 0 0 0 0 -0 -0 0 6 8 9 9 11 10 11 11 11 13 12 11 11 11 10 9 11 10 12 10 9 10 8 8 8 13 12 14 11 11 13 12 11 11 13 13
0 0 0 0 0 0 0 -0 -0 -0 2 6 8 7 7 10 11 11 12 13 12 10 10 9 9 9 10 9 7 7 7 8 8 9 10 10 12 14 15 12 12 16 13 12 11 10 11
0 0 0 0 -0 -0 -0 -0 -0 0 3 5 7 7 9 13 11 13 11 10 11 11 11 9 8 9 8 5 5 6 7 7 7 8 8 11 12 13 15 14 19 11 8 8 10 10 9
0 -0 -0 0 0 1 1 1 1 2 4 7 8 7 10 13 12 12 11 11 10 10 10 9 8 7 6 7 11 13 14 14 13 9 9 9 11 14 16 15 13 13 11 10 11 11 8
1 1 1 1 1 1 2 2 3 3 4 8 9 7 9 11 12 10 12 10 12 12 11 10 7 6 6 9 12 16 16 16 15 12 9 9 10 13 14 17 19 14 10 8 8 14 7
1 1 1 1 1 1 1 2 3 3 4 7 9 8 8 11 10 10 11 11 10 11 11 11 10 9 7 11 14 15 15 13 15 16 14 13 13 15 15 16 14 11 8 6 15 13 7
-0 0 1 1 2 2 2 2 2 3 4 7 9 8 8 10 10 9 9 11 10 9 11 11 9 10 10 12 12 13 14 12 13 12 12 13 14 15 14 16 17 8 8 11 13 12 10
0 0 1 1 1 2 2 2 2 3 3 5 8 8 7 10 10 8 8 8 9 9 9 10 10 10 8 10 10 11 12 11 12 15 9 13 10 11 12 12 7 9 12 14 15 16 15

GFSGBSN_con_lsi_141.txt.gz
Lid_Strength_Index
-1 -1 -1 -1 -1 -1 -1 -1 -1 -1 -1 -1 -1 -1 -1 -1 -1 -1 -1 -1 -1 -1 -1 -1 -1 -1 0 5 5 -1 -1 -1 -1 0 2 3 5 5 7 6 6 8 7 5 5 5 5
-1 -1 -1 -2 -1 -2 -2 -2 -2 -1 -1 -1 -1 -1 -1 -1 -1 -1 -1 -1 -1 -1 -1 -2 -2 -1 2 8 -0 -1 -1 -0 1 1 3 3 4 4 6 6 7 6 6 6 5 6 6
-1 -1 -1 -1 -1 -1 -2 -2 -2 -2 -1 -1 -1 -1 -1 -1 -1 -1 -1 -1 -1 -1 -1 -2 -2 -0 4 5 -1 -1 -1 1 0 1 4 3 3 5 6 8 5 6 9 7 6 6 6
-1 -1 -1 -1 -1 -1 -1 -1 -1 -1 -1 -1 -1 -1 -1 -1 -1 -1 -1 -1 -1 -1 -1 -2 -1 1 6 -0 -1 0 -0 1 0 0 1 1 2 5 6 6 7 9 9 12 7 6 6
-2 -1 -1 -1 -1 -2 -2 -2 -2 -2 -1 -1 -1 -1 -1 -1 -1 -1 -1 -1 -1 -2 -2 -2 1 3 7 -0 2 0 0 2 2 2 1 1 3 7 7 10 12 11 14 12 10 6 7
-1 -1 -1 -1 -1 -1 -2 -2 -2 -1 -1 -1 -1 -1 -1 -1 -1 -1 -1 -1 -1 -1 -1 -0 1 5 3 5 2 1 -0 1 3 4 5 6 7 10 10 12 17 15 14 12 12 9 8
-1 -1 -1 -1 -1 -1 -1 -1 -1 -2 -1 -1 -1 -1 -1 -1 -1 -1 -0 1 4 5 3 6 6 5 4 2 1 2 1 3 3 6 10 7 11 13 11 10 10 10 12 12 9 8 10
-1 -1 -1 -1 -1 -1 -1 -1 -1 -1 -1 -1 -1 -1 -1 -1 -1 -1 0 4 4 2 8 4 4 4 3 2 6 4 1 6 7 11 8 10 13 9 8 9 11 11 13 14 10 8 10
-1 -1 -1 -1 -0 -1 -1 -1 -1 -1 -1 -1 -1 -1 -1 -1 -1 0 2 3 -0 0 8 7 5 5 4 3 6 5 3 5 8 10 10 12 9 7 8 10 12 11 14 13 13 10 9
-1 -1 -1 -0 -0 -1 -1 -1 -1 -1 -1 -1 -1 -1 -1 -1 1 2 4 0 -0 0 12 11 8 6 4 4 7 3 3 5 8 10 9 10 8 9 9 10 10 14 9 11 12 13 17
-1 -1 -1 -1 -1 -1 -1 -1 -1 -1 -1 -1 -1 -1 -1 -1 2 4 2 -0 1 3 20 10 8 2 4 6 6 6 2 5 9 9 9 11 9 10 12 10 9 11 9 11 12 14 14
-1 -1 -1 -1 -1 -1 -1 -1 -1 -1 -1 -1 -1 -1 -1 0 1 1 1 0 3 13 20 13 8 9 9 7 6 6 6 4 4 8 8 9 6 7 8 7 8 8 11 12 12 14 19
-1 -1 -1 -1 -1 -1 -1 -1 -1 -1 -1 -1 -1 -1 -0 -0 4 -0 0 4 14 18 10 13 12 9 9 10 9 8 9 10 11 14 13 10 9 8 7 10 9 10 14 19 20 20 20
-1 -1 -1 -1 -0 -0 -1 -1 -1 -1 -1 -1 -1 -1 -0 0 -1 -0 3 10 17 14 13 9 9 10 12 10 10 9 10 12 8 9 11 14 15 9 7 9 11 12 13 18 22 21 17
-0 -0 -0 -0 -0 -0 -0 -1 -1 -0 -1 -1 -1 1 1 0 -1 1 7 15 15 13 10 10 10 13 13 10 10 10 10 11 9 8 12 13 13 7 7 7 8 12 15 11 16 15 18
1 -0 -0 -0 -0 -0 -0 -0 -0 -0 -0 -1 2 3 3 -0 -0 3 11 13 12 9 8 9 13 11 15 13 11 11 11 9 9 7 6 9 13 8 7 6 7 9 8 16 16 21 22
1 0 -0 -0 -0 -0 -0 -0 -0 -0 -0 -0 3 7 2 -0 1 7 13 13 11 8 7 9 11 12 11 13 10 12 11 8 7 8 7 8 10 11 9 11 12 11 12 11 13 14 19
0 0 0 0 -0 -0 -0 -0 -0 -0 -0 1 4 10 2 1 9 10 12 10 9 8 7 8 8 9 11 11 12 11 11 9 6 6 10 8 11 14 12 8 7 8 11 12 17 18 16
1 1 1 0 0 -0 -0 -0 -0 -0 -0 2 7 7 2 3 12 12 11 10 8 8 8 9 9 8 8 10 13 10 9 6 6 7 9 8 13 17 14 11 9 12 10 11 12 13 17
1 0 0 0 0 0 0 -0 -0 -0 -0 2 6 11 7 6 7 10 11 11 11 7 9 8 8 7 9 10 9 11 9 7 6 7 7 7 10 13 16 12 10 14 12 10 12 16 16
0 0 0 0 0 0 0 -0 -0 -0 -0 2 6 9 9 12 11 9 10 10 11 11 9 7 9 9 10 12 11 11 9 9 7 7 7 9 15 11 10 10 9 10 12 13 14 13 16
0 0 0 0 0 0 0 0 -0 -0 -0 3 8 9 7 9 9 10 10 11 11 10 9 11 10 9 8 11 10 12 10 9 10 8 9 9 14 13 14 11 11 12 11 10 11 11 12
0 0 0 0 0 0 0 0 -0 -0 -0 4 4 3 6 9 10 11 10 10 10 9 9 8 8 9 9 8 7 6 6 6 7 8 9 10 12 14 15 11 12 15 12 11 11 10 10
0 0 0 0 0 0 0 -0 -0 -0 0 2 2 3 7 11 10 10 9 9 10 9 11 9 8 9 8 5 6 6 7 7 8 8 7 12 13 13 15 14 19 11 8 8 9 9 9
-0 -0 -0 0 0 0 0 -0 -0 0 2 3 3 4 7 11 9 9 9 10 10 9 10 10 9 6 5 7 10 12 12 12 12 9 8 8 10 13 15 15 13 12 11 11 11 10 8
0 0 0 -0 -0 -0 -0 -0 1 2 2 4 6 4 5 10 10 9 11 10 12 12 11 10 7 5 6 9 12 15 16 14 14 12 9 8 8 12 13 17 19 13 9 7 8 13 8
1 1 1 1 1 1 1 1 2 2 3 5 7 6 6 10 10 8 10 11 9 10 11 11 10 9 7 10 13 14 14 12 14 15 14 13 12 15 15 16 13 9 8 7 14 13 11
1 1 1 1 1 1 1 2 3 3 3 5 8 6 6 11 11 10 10 10 9 7 10 11 9 10 10 12 11 12 12 12 13 11 12 13 14 14 14 16 17 7 7 10 12 13 13
1 1 2 2 2 2 2 2 2 3 3 4 8 7 6 10 11 9 9 8 9 9 8 9 9 9 8 10 10 10 12 11 11 14 9 13 10 11 11 12 8 10 11 13 15 16 15

GFSGBSN_con_lsi_147.txt.gz
Lid_Strength_Index
-0 -1 -1 -1 -1 -1 -1 -1 -1 0 1 0 -0 -1 -1 -1 -1 -1 -1 -1 -1 -1 -1 -1 -1 -1 0 5 5 -0 -0 -1 0 1 3 4 6 7 9 8 7 9 8 7 6 6 7
0 0 -1 -1 -1 -1 -1 -1 -0 -0 -0 -0 0 -0 -1 -1 -1 -1 -1 -1 -1 -1 -1 -1 -1 -1 3 8 0 -1 -0 0 1 2 3 4 5 5 8 8 9 8 8 7 7 7 7
1 1 0 -0 -1 -1 -1 -1 -1 -1 -0 -1 -0 -0 -1 -1 -1 -1 -1 -1 -1 -2 -2 -2 -2 0 4 6 1 0 -0 1 1 1 4 3 4 6 7 9 6 7 10 9 8 7 8
1 1 0 0 -0 -1 -1 -1 -1 -1 -1 -1 -1 -0 -1 -1 -1 -1 -1 -1 -1 -1 -2 -2 -2 2 7 1 1 1 0 1 0 0 2 2 2 5 7 7 8 11 11 15 9 8 7
1 0 1 0 -0 -0 -1 -1 -1 -1 -1 -1 -1 -1 -1 -1 -1 -1 -1 -1 -1 -1 -2 -2 2 4 8 1 3 1 1 3 2 2 2 1 3 7 7 10 13 13 16 14 12 8 8
-1 -0 1 0 0 -0 0 -1 -1 -1 -1 -1 -1 -1 -1 -1 -1 -1 -1 -1 -1 -1 -1 -0 2 6 5 6 3 2 1 1 4 4 5 6 7 10 10 12 17 15 15 13 13 10 9
-2 -2 0 0 -0 0 -0 -1 -1 -1 -1 -1 -1 -1 -1 -1 -1 -2 -0 1 4 5 3 6 7 6 5 3 2 3 2 3 4 6 10 8 11 13 12 10 10 12 13 14 11 9 10
-2 -2 -2 -1 -1 -1 -0 -0 -1 -1 -1 -1 -1 -1 -1 -1 -1 -2 0 4 4 3 8 4 4 4 4 3 6 4 2 7 8 11 9 10 13 10 9 9 11 12 13 14 11 9 10
-1 -2 -2 -2 -2 -1 -1 -0 1 -1 -1 -1 -1 -1 -1 -1 -1 -0 2 3 0 2 8 7 5 5 5 4 7 6 4 6 9 11 10 12 11 8 10 11 13 12 13 13 13 11 10
-1 -1 -1 -1 -1 -1 -1 -1 0 -1 -1 -1 -1 -1 -1 -1 1 2 4 1 -0 1 12 11 8 6 5 4 8 3 3 6 9 11 11 11 8 10 11 12 11 15 11 11 12 14 17
-0 -1 -1 -1 -1 -1 -1 -1 1 -1 -1 -1 -1 -1 -1 -1 2 4 2 0 0 3 20 10 8 2 4 7 7 6 3 6 10 10 10 12 11 11 12 11 10 13 10 11 12 14 14
-0 -0 -1 -1 -1 -1 -1 -1 -1 -1 -1 -1 -1 -1 -1 0 2 2 0 0 2 13 19 13 8 9 9 8 8 6 7 5 6 10 10 10 7 9 10 9 9 9 12 12 13 14 19
-1 -1 -1 -1 -1 -1 -1 -1 -1 -1 -1 -1 -1 -1 -0 0 4 1 0 4 14 18 10 13 12 10 10 11 9 9 10 11 12 15 14 12 11 9 8 11 10 11 14 18 20 20 20
-0 -0 -0 -1 -1 -1 -1 -1 -1 -1 -1 -1 -1 -1 -0 0 1 0 2 10 17 14 13 10 10 10 12 10 10 10 11 12 9 11 13 15 17 11 8 10 12 12 13 17 22 21 19
0 -0 -0 -1 -1 -1 -1 -1 -1 -1 -1 -1 -1 1 2 1 -0 1 7 15 15 15 11 12 11 13 13 11 11 11 11 12 10 10 14 15 15 9 8 8 9 13 15 11 16 15 19
0 -0 0 -1 -1 -1 -1 -1 -1 -1 -1 -1 2 3 3 -0 -0 3 10 13 13 9 9 10 14 12 15 13 13 12 12 10 11 8 9 12 15 10 9 8 9 10 10 16 15 22 22
-0 -0 -0 -0 -0 -1 -1 -1 -0 -0 -1 -1 3 7 3 -0 1 7 13 12 11 8 8 10 12 13 13 13 12 13 13 10 8 9 8 10 12 13 10 12 13 13 14 13 13 16 20
-0 -0 -0 -0 -0 -0 -0 -1 -0 -1 -1 1 5 10 2 1 9 9 12 10 8 9 7 9 9 11 12 12 12 12 13 10 7 8 11 9 12 16 13 10 9 9 12 12 17 18 16
-0 -0 -0 -0 -0 -0 -0 -1 -0 -1 -1 4 8 7 2 3 12 12 10 10 9 9 9 10 10 9 9 11 13 11 10 8 7 8 10 9 13 20 17 12 11 12 11 11 11 13 16
0 0 -0 -0 -0 -0 -0 -0 -0 -1 -1 5 8 13 7 6 7 11 11 12 11 8 9 8 9 9 10 11 10 12 11 8 8 7 7 7 12 14 17 15 12 14 13 12 13 16 16
0 0 0 0 -0 -0 -0 -0 -0 -0 -1 5 8 10 9 11 10 9 10 10 11 12 8 8 10 9 10 13 12 12 10 10 9 7 8 9 15 13 13 11 12 12 12 12 14 13 16
0 0 0 0 -0 -0 -0 -0 -0 -0 -1 5 8 8 8 9 9 9 10 11 11 11 10 11 11 9 9 12 10 12 10 10 10 9 9 9 14 13 16 12 12 13 12 12 12 12 13
0 0 0 -0 -0 -0 -0 -0 -0 -0 -0 5 4 4 6 8 11 11 11 11 10 9 9 8 9 9 10 9 8 7 7 7 8 9 11 11 13 15 21 13 13 18 14 12 11 10 11
0 0 -0 -0 -0 -0 -0 -0 -0 -0 -0 4 5 5 8 11 10 10 9 9 10 9 10 8 7 10 8 6 6 8 10 10 9 9 8 13 13 14 20 19 21 14 11 11 11 10 10
-0 -0 -0 -0 -0 -0 -0 -0 -0 -0 -1 3 4 6 7 11 9 9 9 9 8 8 9 10 9 8 6 7 11 14 16 15 15 12 10 9 12 15 17 23 18 15 13 13 14 14 13
-0 -0 -0 -0 -0 -0 -0 -0 -0 -0 -1 4 6 4 6 9 10 8 9 9 10 10 11 10 8 7 7 11 15 18 18 18 18 15 11 10 10 15 27 26 26 16 12 11 11 16 14
-0 -0 -0 -0 -0 -0 -0 -0 -0 -1 -1 4 6 4 5 9 9 8 9 10 9 11 12 12 11 11 9 14 17 19 21 16 20 20 19 20 21 18 27 27 20 14 11 9 18 16 16
1 1 0 -0 -0 -0 -0 -0 -0 -1 -0 4 7 4 6 10 10 9 9 11 10 11 11 11 11 12 13 15 16 17 21 17 19 16 16 18 20 23 25 26 22 14 12 12 17 17 17
2 2 1 1 1 0 0 -0 -0 -1 -0 2 7 5 5 9 9 7 8 7 8 9 10 11 12 13 11 14 15 16 20 20 20 21 13 17 15 17 16 17 16 17 18 18 17 18 18